Weather in Araxos

Greece     38°09′56″N   21°24′31″E
temp.,
°C
wind,
m/s
gust,
m/s
humid.,
%
clouds,
%
prec.,
mm/h
press.,
hPa
HPBL,
m
12 may, wed
wed1200:00+19sse33765 0.0 1013105
03:00+18s22730 0.0 1013140
06:00+18sse22773 0.0 1012139
09:00+18s1174100 0.0 1012124
12:00+18wsw44755 0.0 1012183
15:00+19wsw4571100 0.0 1011177
18:00+20w55750 0.0 1011262
21:00+19wsw34820 0.0 1010161
13 may, thu
thu1300:00+18ssw34810 0.0 1011190
03:00+17ssw33825 0.0 1010176
06:00+17sw238278 0.0 1010345
09:00+17w118368 0.1 1011170
12:00+18w33740 0.0 1011302
15:00+19wsw66740 0.0 1011323
18:00+19sw99740 0.0 1011599
21:00+19wsw55774 0.0 1012503
14 may, fri
fri1400:00+18sw45760 0.0 1013538
03:00+17sw33774 0.0 1013261
06:00+17s12760 0.0 1014204
09:00+17s11750 0.0 1015193
12:00+17wsw33755 0.0 1016180
15:00+19wsw556818 0.0 1016232
18:00+19wsw456999 0.0 1015248
21:00+19wsw33750 0.0 101576
15 may, sat
sat1500:00+18s23744 0.0 1015139
03:00+17e01690 0.0 101494
06:00+17e1172100 0.0 1013112
09:00+17sw1164100 0.0 1014190
12:00+19nw2263100 0.0 1014106
15:00+20wsw6971100 0.0 1012267
18:00+20sw8107381 0.1 1011342
21:00+19wsw45795 0.9 1010509
16 may, sun
sun1600:00+18wsw24711 0.3 1011442
03:00+17sw127375 0.3 1010254
06:00+17sw1273100 0.0 1010299
09:00+17ssw1173100 0.0 1010297
12:00+17wsw557384 0.0 1011295
15:00+20w1011695 0.0 1010527
18:00+19w111270100 0.0 1010544
21:00+19wnw896931 0.0 1010563